| time (UTC) | temp F | wind direction | speed MPH | gust MPH | rain 1hr in | rain 24hr in | rain mn in | humidity % | barometer mb |
| 20260508013505 | 51 | 159 | 1.0 | 2.0 | 0.00 | 0.00 | 0.00 | 55 | 1013.8 |
| 20260508013026 | 51 | 251 | 0.0 | 4.0 | 0.00 | 0.00 | 0.00 | 57 | 1013.7 |
| 20260508012512 | 51 | 228 | 0.0 | 5.0 | 0.00 | 0.00 | 0.00 | 56 | 1013.7 |
| 20260508012010 | 50 | 259 | 2.0 | 5.0 | 0.00 | 0.00 | 0.00 | 58 | 1013.6 |
| 20260508011526 | 49 | 279 | 2.0 | 4.0 | 0.00 | 0.00 | 0.00 | 66 | 1013.6 |
| 20260508011008 | 49 | 234 | 0.0 | 1.0 | 0.00 | 0.00 | 0.00 | 66 | 1013.6 |
| 20260508010509 | 49 | 234 | 0.0 | 0.0 | 0.00 | 0.00 | 0.00 | 66 | 1013.6 |
| 20260508010027 | 50 | 234 | 0.0 | 2.0 | 0.00 | 0.00 | 0.00 | 64 | 1013.5 |
| 20260508005507 | 50 | 234 | 0.0 | 2.0 | 0.00 | 0.00 | 0.00 | 61 | 1013.5 |
| 20260508005007 | 51 | 234 | 0.0 | 0.0 | 0.00 | 0.00 | 0.00 | 64 | 1013.6 |
| 20260508004516 | 51 | 234 | 0.0 | 0.0 | 0.00 | 0.00 | 0.00 | 59 | 1013.4 |
| 20260508004005 | 51 | 234 | 0.0 | 0.0 | 0.00 | 0.00 | 0.00 | 58 | 1013.4 |
| 20260508003505 | 52 | 234 | 0.0 | 0.0 | 0.00 | 0.00 | 0.00 | 56 | 1013.4 |
| 20260508003024 | 52 | 234 | 0.0 | 0.0 | 0.00 | 0.00 | 0.00 | 55 | 1013.4 |
| 20260508002505 | 52 | 234 | 0.0 | 0.0 | 0.00 | 0.00 | 0.00 | 53 | 1013.3 |
| 20260508002011 | 52 | 234 | 0.0 | 0.0 | 0.00 | 0.00 | 0.00 | 52 | 1013.3 |
| 20260508001538 | 53 | 234 | 0.0 | 0.0 | 0.00 | 0.00 | 0.00 | 52 | 1013.3 |
| 20260508001008 | 53 | 234 | 0.0 | 2.0 | 0.00 | 0.00 | 0.00 | 50 | 1013.3 |
| 20260508000511 | 53 | 234 | 0.0 | 2.0 | 0.00 | 0.00 | 0.00 | 49 | 1013.3 |
| 20260508000025 | 54 | 234 | 0.0 | 3.0 | 0.00 | 0.00 | 0.00 | 48 | 1013.2 |
| 20260507235509 | 54 | 211 | 0.0 | 4.0 | 0.00 | 0.00 | 0.00 | 47 | 1013.2 |
| 20260507235010 | 54 | 207 | 1.0 | 4.0 | 0.00 | 0.00 | 0.00 | 46 | 1013.1 |
| 20260507234511 | 55 | 248 | 0.0 | 4.0 | 0.00 | 0.00 | 0.00 | 46 | 1013.1 |
| 20260507234051 | 55 | 278 | 1.0 | 7.0 | 0.00 | 0.00 | 0.00 | 45 | 1013.1 |
| 20260507233507 | 55 | 265 | 1.0 | 7.0 | 0.00 | 0.00 | 0.00 | 43 | 1013.1 |
| 20260507233019 | 55 | 297 | 1.0 | 5.0 | 0.00 | 0.00 | 0.00 | 44 | 1013.1 |
| 20260507232509 | 56 | 296 | 1.0 | 6.0 | 0.00 | 0.00 | 0.00 | 43 | 1013.0 |
| 20260507232007 | 56 | 175 | 1.0 | 7.0 | 0.00 | 0.00 | 0.00 | 42 | 1013.1 |
| 20260507231529 | 57 | 266 | 3.0 | 7.0 | 0.00 | 0.00 | 0.00 | 42 | 1013.1 |
| 20260507231007 | 57 | 270 | 1.0 | 5.0 | 0.00 | 0.00 | 0.00 | 42 | 1013.1 |
| 20260507230509 | 57 | 266 | 1.0 | 3.0 | 0.00 | 0.00 | 0.00 | 42 | 1013.0 |
| 20260507230027 | 57 | 328 | 1.0 | 4.0 | 0.00 | 0.00 | 0.00 | 43 | 1013.1 |
| 20260507225510 | 57 | 263 | 1.0 | 8.0 | 0.00 | 0.00 | 0.00 | 43 | 1013.2 |
| 20260507225010 | 57 | 259 | 3.0 | 8.0 | 0.00 | 0.00 | 0.00 | 40 | 1013.2 |
| 20260507224537 | 58 | 250 | 3.0 | 7.0 | 0.00 | 0.00 | 0.00 | 40 | 1013.3 |
| 20260507224011 | 58 | 298 | 1.0 | 7.0 | 0.00 | 0.00 | 0.00 | 44 | 1013.2 |
| 20260507223515 | 58 | 231 | 2.0 | 8.0 | 0.00 | 0.00 | 0.00 | 43 | 1013.4 |
| 20260507223016 | 57 | 279 | 2.0 | 8.0 | 0.00 | 0.00 | 0.00 | 41 | 1013.4 |
| 20260507222507 | 58 | 313 | 2.0 | 7.0 | 0.00 | 0.00 | 0.00 | 43 | 1013.4 |
| 20260507222008 | 58 | 256 | 2.0 | 9.0 | 0.00 | 0.00 | 0.00 | 40 | 1013.4 |
| 20260507221522 | 58 | 269 | 2.0 | 10.0 | 0.00 | 0.00 | 0.00 | 42 | 1013.4 |
| 20260507221009 | 58 | 293 | 5.0 | 10.0 | 0.00 | 0.00 | 0.00 | 40 | 1013.4 |
| 20260507220506 | 58 | 286 | 2.0 | 6.0 | 0.00 | 0.00 | 0.00 | 41 | 1013.4 |
| 20260507220036 | 57 | 185 | 1.0 | 9.0 | 0.00 | 0.00 | 0.00 | 42 | 1013.4 |
| 20260507215010 | 55 | 243 | 3.0 | 9.0 | 0.00 | 0.00 | 0.00 | 42 | 1013.5 |
| 20260507214535 | 55 | 282 | 2.0 | 10.0 | 0.00 | 0.00 | 0.00 | 43 | 1013.3 |
| 20260507214008 | 55 | 294 | 4.0 | 10.0 | 0.00 | 0.00 | 0.00 | 41 | 1013.2 |
| 20260507213512 | 55 | 257 | 4.0 | 10.0 | 0.00 | 0.00 | 0.00 | 41 | 1013.2 |
| 20260507213027 | 56 | 261 | 4.0 | 10.0 | 0.00 | 0.00 | 0.00 | 40 | 1013.2 |
| 20260507212511 | 56 | 260 | 2.0 | 9.0 | 0.00 | 0.00 | 0.00 | 44 | 1013.3 |
| 20260507212007 | 56 | 313 | 3.0 | 8.0 | 0.00 | 0.00 | 0.00 | 42 | 1013.3 |
| 20260507211518 | 56 | 279 | 2.0 | 11.0 | 0.00 | 0.00 | 0.00 | 42 | 1013.3 |
| 20260507211008 | 57 | 269 | 3.0 | 11.0 | 0.00 | 0.00 | 0.00 | 42 | 1013.1 |
| 20260507210507 | 58 | 283 | 5.0 | 12.0 | 0.00 | 0.00 | 0.00 | 42 | 1013.1 |
| 20260507210020 | 58 | 5 | 3.0 | 12.0 | 0.00 | 0.00 | 0.00 | 42 | 1013.1 |
| 20260507205508 | 57 | 176 | 4.0 | 9.0 | 0.00 | 0.00 | 0.00 | 41 | 1013.1 |
| 20260507205009 | 57 | 314 | 5.0 | 9.0 | 0.00 | 0.00 | 0.00 | 43 | 1013.2 |
| 20260507204524 | 56 | 234 | 2.0 | 10.0 | 0.00 | 0.00 | 0.00 | 42 | 1013.2 |
| 20260507204013 | 58 | 15 | 5.0 | 10.0 | 0.00 | 0.00 | 0.00 | 40 | 1013.2 |
| 20260507203510 | 58 | 301 | 5.0 | 9.0 | 0.00 | 0.00 | 0.00 | 45 | 1013.1 |
| 20260507203032 | 58 | 352 | 3.0 | 10.0 | 0.00 | 0.00 | 0.00 | 48 | 1013.0 |
| 20260507202509 | 57 | 319 | 3.0 | 11.0 | 0.00 | 0.00 | 0.00 | 40 | 1013.0 |
| 20260507202013 | 57 | 288 | 5.0 | 11.0 | 0.00 | 0.00 | 0.00 | 42 | 1013.1 |
| 20260507201527 | 58 | 222 | 3.0 | 10.0 | 0.00 | 0.00 | 0.00 | 48 | 1013.1 |
| 20260507201008 | 57 | 59 | 3.0 | 12.0 | 0.00 | 0.00 | 0.00 | 44 | 1013.1 |
| 20260507200508 | 57 | 5 | 4.0 | 15.0 | 0.00 | 0.00 | 0.00 | 45 | 1013.2 |
| 20260507200020 | 56 | 248 | 7.0 | 15.0 | 0.00 | 0.00 | 0.00 | 42 | 1013.4 |
| 20260507195506 | 57 | 271 | 2.0 | 11.0 | 0.00 | 0.00 | 0.00 | 43 | 1013.3 |
| 20260507195011 | 57 | 351 | 2.0 | 12.0 | 0.00 | 0.00 | 0.00 | 46 | 1013.2 |
| 20260507194505 | 57 | 286 | 5.0 | 12.0 | 0.00 | 0.00 | 0.00 | 44 | 1013.3 |
| 20260507194005 | 56 | 252 | 5.0 | 8.0 | 0.00 | 0.00 | 0.00 | 46 | 1013.2 |
| 20260507193504 | 55 | 257 | 2.0 | 11.0 | 0.00 | 0.00 | 0.00 | 46 | 1013.3 |
| 20260507193013 | 56 | 268 | 3.0 | 13.0 | 0.00 | 0.00 | 0.00 | 47 | 1013.4 |
| 20260507192504 | 56 | 259 | 3.0 | 13.0 | 0.00 | 0.00 | 0.00 | 49 | 1013.4 |
| 20260507192004 | 55 | 332 | 2.0 | 12.0 | 0.00 | 0.00 | 0.00 | 50 | 1013.4 |
| 20260507191514 | 56 | 225 | 3.0 | 13.0 | 0.00 | 0.00 | 0.00 | 47 | 1013.4 |
| 20260507191009 | 56 | 306 | 4.0 | 15.0 | 0.00 | 0.00 | 0.00 | 49 | 1013.3 |
| 20260507190505 | 56 | 278 | 6.0 | 15.0 | 0.00 | 0.00 | 0.00 | 45 | 1013.5 |
| 20260507190020 | 56 | 313 | 3.0 | 9.0 | 0.00 | 0.00 | 0.00 | 45 | 1013.6 |
| 20260507185511 | 56 | 275 | 4.0 | 12.0 | 0.00 | 0.00 | 0.00 | 47 | 1013.6 |
| 20260507185009 | 56 | 282 | 5.0 | 12.0 | 0.00 | 0.00 | 0.00 | 48 | 1013.6 |
| 20260507184523 | 56 | 257 | 5.0 | 9.0 | 0.00 | 0.00 | 0.00 | 45 | 1013.6 |
| 20260507184003 | 56 | 290 | 3.0 | 9.0 | 0.00 | 0.00 | 0.00 | 45 | 1013.6 |
| 20260507183504 | 56 | 236 | 3.0 | 9.0 | 0.00 | 0.00 | 0.00 | 56 | 1013.6 |
| 20260507183008 | 55 | 236 | 3.0 | 11.0 | 0.00 | 0.00 | 0.00 | 47 | 1013.6 |
| 20260507182505 | 55 | 255 | 7.0 | 11.0 | 0.00 | 0.00 | 0.00 | 49 | 1013.7 |
| 20260507182005 | 56 | 300 | 4.0 | 10.0 | 0.00 | 0.00 | 0.00 | 49 | 1013.7 |
| 20260507181512 | 55 | 295 | 4.0 | 12.0 | 0.00 | 0.00 | 0.00 | 49 | 1013.7 |
| 20260507181004 | 55 | 269 | 5.0 | 12.0 | 0.00 | 0.00 | 0.00 | 51 | 1013.8 |
| 20260507180511 | 55 | 232 | 5.0 | 12.0 | 0.00 | 0.00 | 0.00 | 49 | 1013.7 |
| 20260507180016 | 55 | 297 | 5.0 | 12.0 | 0.00 | 0.00 | 0.00 | 48 | 1013.8 |
| 20260507175508 | 55 | 282 | 5.0 | 11.0 | 0.00 | 0.00 | 0.00 | 47 | 1013.9 |
| 20260507175011 | 56 | 286 | 5.0 | 11.0 | 0.00 | 0.00 | 0.00 | 50 | 1013.7 |
| 20260507174532 | 55 | 277 | 4.0 | 12.0 | 0.00 | 0.00 | 0.00 | 46 | 1013.9 |
| 20260507174008 | 55 | 226 | 5.0 | 12.0 | 0.00 | 0.00 | 0.00 | 49 | 1014.0 |
| 20260507173512 | 55 | 248 | 2.0 | 11.0 | 0.00 | 0.00 | 0.00 | 54 | 1014.0 |
| 20260507173005 | 55 | 273 | 5.0 | 11.0 | 0.00 | 0.00 | 0.00 | 52 | 1014.0 |
| 20260507172506 | 54 | 225 | 3.0 | 11.0 | 0.00 | 0.00 | 0.00 | 52 | 1014.0 |
| 20260507172005 | 54 | 270 | 5.0 | 12.0 | 0.00 | 0.00 | 0.00 | 53 | 1014.1 |
| 20260507171515 | 54 | 288 | 6.0 | 12.0 | 0.00 | 0.00 | 0.00 | 52 | 1014.1 |
| 20260507171005 | 54 | 284 | 5.0 | 11.0 | 0.00 | 0.00 | 0.00 | 54 | 1014.1 |
| 20260507170507 | 54 | 240 | 4.0 | 11.0 | 0.00 | 0.00 | 0.00 | 53 | 1014.2 |
| 20260507170023 | 54 | 284 | 4.0 | 14.0 | 0.00 | 0.00 | 0.00 | 55 | 1014.2 |
| 20260507165506 | 53 | 302 | 4.0 | 14.0 | 0.00 | 0.00 | 0.00 | 58 | 1014.3 |
| 20260507165004 | 53 | 240 | 5.0 | 12.0 | 0.00 | 0.00 | 0.00 | 52 | 1014.3 |
| 20260507164520 | 53 | 290 | 4.0 | 12.0 | 0.00 | 0.00 | 0.00 | 53 | 1014.4 |
| 20260507164010 | 53 | 254 | 5.0 | 10.0 | 0.00 | 0.00 | 0.00 | 54 | 1014.4 |
| 20260507163509 | 53 | 308 | 3.0 | 16.0 | 0.00 | 0.00 | 0.00 | 55 | 1014.5 |
| 20260507163023 | 53 | 272 | 7.0 | 16.0 | 0.00 | 0.00 | 0.00 | 53 | 1014.5 |
| 20260507162509 | 53 | 265 | 3.0 | 10.0 | 0.00 | 0.00 | 0.00 | 59 | 1014.4 |
| 20260507162012 | 53 | 252 | 6.0 | 9.0 | 0.00 | 0.00 | 0.00 | 52 | 1014.5 |
| 20260507161526 | 53 | 281 | 5.0 | 10.0 | 0.00 | 0.00 | 0.00 | 54 | 1014.4 |
| 20260507160509 | 53 | 279 | 4.0 | 11.0 | 0.00 | 0.00 | 0.00 | 55 | 1014.3 |
| 20260507160032 | 52 | 288 | 6.0 | 11.0 | 0.00 | 0.00 | 0.00 | 51 | 1014.3 |
| 20260507155006 | 52 | 295 | 5.0 | 10.0 | 0.00 | 0.00 | 0.00 | 51 | 1014.3 |
| 20260507154518 | 52 | 207 | 5.0 | 11.0 | 0.00 | 0.00 | 0.00 | 52 | 1014.2 |
| 20260507154010 | 52 | 294 | 5.0 | 11.0 | 0.00 | 0.00 | 0.00 | 54 | 1014.2 |
| 20260507153507 | 52 | 286 | 4.0 | 10.0 | 0.00 | 0.00 | 0.00 | 54 | 1014.2 |
| 20260507153022 | 52 | 279 | 3.0 | 13.0 | 0.00 | 0.00 | 0.00 | 53 | 1014.2 |
| 20260507152511 | 52 | 252 | 5.0 | 12.0 | 0.00 | 0.00 | 0.00 | 57 | 1014.1 |
| 20260507152015 | 52 | 281 | 4.0 | 10.0 | 0.00 | 0.00 | 0.00 | 55 | 1014.1 |
| 20260507151524 | 52 | 198 | 3.0 | 11.0 | 0.00 | 0.00 | 0.00 | 55 | 1014.1 |
| 20260507151012 | 52 | 254 | 5.0 | 11.0 | 0.00 | 0.00 | 0.00 | 56 | 1014.1 |
| 20260507150032 | 51 | 275 | 4.0 | 10.0 | 0.00 | 0.00 | 0.00 | 54 | 1014.0 |
| 20260507145509 | 51 | 282 | 3.0 | 10.0 | 0.00 | 0.00 | 0.00 | 54 | 1014.2 |
| 20260507145008 | 51 | 227 | 5.0 | 9.0 | 0.00 | 0.00 | 0.00 | 54 | 1014.2 |
| 20260507144528 | 51 | 297 | 4.0 | 11.0 | 0.00 | 0.00 | 0.00 | 57 | 1014.2 |
| 20260507144009 | 50 | 263 | 5.0 | 11.0 | 0.00 | 0.00 | 0.00 | 54 | 1014.1 |
| 20260507143508 | 50 | 238 | 5.0 | 10.0 | 0.00 | 0.00 | 0.00 | 55 | 1014.3 |
| 20260507143026 | 50 | 268 | 4.0 | 10.0 | 0.00 | 0.00 | 0.00 | 54 | 1014.2 |
| 20260507142509 | 50 | 298 | 3.0 | 10.0 | 0.00 | 0.00 | 0.00 | 53 | 1014.2 |
| 20260507142009 | 50 | 281 | 5.0 | 9.0 | 0.00 | 0.00 | 0.00 | 54 | 1014.2 |
| 20260507141526 | 50 | 269 | 4.0 | 10.0 | 0.00 | 0.00 | 0.00 | 53 | 1014.3 |
| 20260507141010 | 50 | 272 | 3.0 | 10.0 | 0.00 | 0.00 | 0.00 | 55 | 1014.3 |
| 20260507140513 | 50 | 253 | 4.0 | 10.0 | 0.00 | 0.00 | 0.00 | 56 | 1014.3 |
| 20260507140027 | 49 | 281 | 4.0 | 12.0 | 0.00 | 0.00 | 0.00 | 56 | 1014.4 |
| 20260507135514 | 49 | 290 | 5.0 | 12.0 | 0.00 | 0.00 | 0.00 | 55 | 1014.5 |
| 20260507135012 | 48 | 287 | 2.0 | 8.0 | 0.00 | 0.00 | 0.00 | 60 | 1014.4 |
| 20260507134513 | 48 | 280 | 3.0 | 7.0 | 0.00 | 0.00 | 0.00 | 60 | 1014.5 |
| 20260507134010 | 48 | 290 | 2.0 | 7.0 | 0.00 | 0.00 | 0.00 | 60 | 1014.5 |
| 20260507133503 | 48 | 286 | 4.0 | 10.0 | 0.00 | 0.00 | 0.00 | 59 | 1014.4 |
| 20260507133003 | 48 | 350 | 3.0 | 10.0 | 0.00 | 0.00 | 0.00 | 61 | 1014.4 |
| 20260507132502 | 48 | 270 | 3.0 | 9.0 | 0.00 | 0.00 | 0.00 | 62 | 1014.4 |
| 20260507132004 | 48 | 243 | 3.0 | 9.0 | 0.00 | 0.00 | 0.00 | 62 | 1014.5 |
| 20260507131510 | 47 | 287 | 3.0 | 6.0 | 0.00 | 0.00 | 0.00 | 64 | 1014.5 |
| 20260507131004 | 47 | 267 | 2.0 | 7.0 | 0.00 | 0.00 | 0.00 | 64 | 1014.6 |
| 20260507130010 | 46 | 257 | 1.0 | 9.0 | 0.00 | 0.00 | 0.00 | 66 | 1014.5 |
| 20260507125505 | 46 | 210 | 5.0 | 9.0 | 0.00 | 0.00 | 0.00 | 64 | 1014.6 |
| 20260507125007 | 47 | 274 | 4.0 | 9.0 | 0.00 | 0.00 | 0.00 | 67 | 1014.4 |
| 20260507124512 | 46 | 286 | 4.0 | 9.0 | 0.00 | 0.00 | 0.00 | 68 | 1014.4 |
| 20260507124007 | 46 | 290 | 3.0 | 8.0 | 0.00 | 0.00 | 0.00 | 71 | 1014.4 |
| 20260507123508 | 45 | 290 | 2.0 | 7.0 | 0.00 | 0.00 | 0.00 | 72 | 1014.5 |
| 20260507123016 | 45 | 264 | 3.0 | 7.0 | 0.00 | 0.00 | 0.00 | 73 | 1014.4 |
| 20260507122504 | 44 | 264 | 2.0 | 8.0 | 0.00 | 0.00 | 0.00 | 74 | 1014.4 |
| 20260507122004 | 44 | 281 | 2.0 | 8.0 | 0.00 | 0.00 | 0.00 | 75 | 1014.5 |
| 20260507121503 | 43 | 274 | 2.0 | 6.0 | 0.00 | 0.00 | 0.00 | 77 | 1014.5 |
| 20260507121005 | 43 | 294 | 2.0 | 6.0 | 0.00 | 0.00 | 0.00 | 77 | 1014.4 |
| 20260507120503 | 42 | 269 | 2.0 | 5.0 | 0.00 | 0.00 | 0.00 | 80 | 1014.4 |
| 20260507120022 | 42 | 275 | 2.0 | 4.0 | 0.00 | 0.00 | 0.00 | 82 | 1014.4 |
| 20260507115505 | 41 | 277 | 2.0 | 4.0 | 0.00 | 0.00 | 0.00 | 84 | 1014.3 |
| 20260507115004 | 40 | 261 | 2.0 | 4.0 | 0.00 | 0.00 | 0.00 | 88 | 1014.3 |
| 20260507114511 | 39 | 232 | 1.0 | 3.0 | 0.00 | 0.00 | 0.00 | 91 | 1014.3 |
| 20260507114007 | 38 | 272 | 1.0 | 2.0 | 0.00 | 0.00 | 0.00 | 94 | 1014.3 |
| 20260507113507 | 37 | 239 | 1.0 | 2.0 | 0.00 | 0.00 | 0.00 | 96 | 1014.3 |
| 20260507113024 | 37 | 259 | 0.0 | 2.0 | 0.00 | 0.00 | 0.00 | 97 | 1014.3 |
| 20260507112510 | 37 | 262 | 1.0 | 2.0 | 0.00 | 0.00 | 0.00 | 97 | 1014.3 |
| 20260507112008 | 36 | 253 | 0.0 | 2.0 | 0.00 | 0.00 | 0.00 | 97 | 1014.3 |
| 20260507111521 | 35 | 248 | 0.0 | 2.0 | 0.00 | 0.00 | 0.00 | 97 | 1014.3 |
| 20260507111002 | 35 | 248 | 0.0 | 2.0 | 0.00 | 0.00 | 0.00 | 97 | 1014.3 |
| 20260507110504 | 35 | 248 | 0.0 | 2.0 | 0.00 | 0.00 | 0.00 | 96 | 1014.3 |
| 20260507110007 | 34 | 248 | 0.0 | 0.0 | 0.00 | 0.00 | 0.00 | 96 | 1014.1 |
| 20260507105503 | 34 | 248 | 0.0 | 0.0 | 0.00 | 0.00 | 0.00 | 96 | 1014.0 |
| 20260507105004 | 34 | 248 | 0.0 | 0.0 | 0.00 | 0.00 | 0.00 | 96 | 1014.0 |
| 20260507104513 | 34 | 248 | 0.0 | 0.0 | 0.00 | 0.00 | 0.00 | 96 | 1014.0 |
| 20260507104007 | 34 | 248 | 0.0 | 2.0 | 0.00 | 0.00 | 0.00 | 96 | 1014.0 |
| 20260507103505 | 34 | 248 | 0.0 | 2.0 | 0.00 | 0.00 | 0.00 | 96 | 1014.0 |
| 20260507103015 | 34 | 248 | 0.0 | 2.0 | 0.00 | 0.00 | 0.00 | 96 | 1014.0 |
| 20260507102510 | 34 | 248 | 0.0 | 2.0 | 0.00 | 0.00 | 0.00 | 96 | 1014.0 |
| 20260507102007 | 34 | 248 | 0.0 | 0.0 | 0.00 | 0.00 | 0.00 | 96 | 1013.9 |
| 20260507101521 | 34 | 248 | 0.0 | 0.0 | 0.00 | 0.00 | 0.00 | 96 | 1013.9 |
| 20260507101007 | 34 | 248 | 0.0 | 0.0 | 0.00 | 0.00 | 0.00 | 96 | 1013.8 |
| 20260507100507 | 34 | 248 | 0.0 | 0.0 | 0.00 | 0.00 | 0.00 | 95 | 1013.8 |
| 20260507100034 | 34 | 248 | 0.0 | 0.0 | 0.00 | 0.00 | 0.00 | 95 | 1013.8 |
| 20260507095506 | 34 | 248 | 0.0 | 0.0 | 0.00 | 0.00 | 0.00 | 96 | 1013.8 |
| 20260507095004 | 34 | 248 | 0.0 | 0.0 | 0.00 | 0.00 | 0.00 | 96 | 1013.7 |
| 20260507094505 | 34 | 248 | 0.0 | 0.0 | 0.00 | 0.00 | 0.00 | 95 | 1013.7 |
| 20260507094005 | 34 | 248 | 0.0 | 0.0 | 0.00 | 0.00 | 0.00 | 95 | 1013.7 |
| 20260507093505 | 34 | 248 | 0.0 | 0.0 | 0.00 | 0.00 | 0.00 | 96 | 1013.7 |
| 20260507093016 | 34 | 248 | 0.0 | 0.0 | 0.00 | 0.00 | 0.00 | 95 | 1013.6 |
| 20260507092503 | 34 | 248 | 0.0 | 0.0 | 0.00 | 0.00 | 0.00 | 95 | 1013.6 |
| 20260507092005 | 34 | 248 | 0.0 | 0.0 | 0.00 | 0.00 | 0.00 | 96 | 1013.7 |
| 20260507091518 | 34 | 248 | 0.0 | 0.0 | 0.00 | 0.00 | 0.00 | 96 | 1013.7 |
| 20260507091007 | 34 | 248 | 0.0 | 0.0 | 0.00 | 0.00 | 0.00 | 95 | 1013.6 |
| 20260507090508 | 34 | 248 | 0.0 | 0.0 | 0.00 | 0.00 | 0.00 | 95 | 1013.4 |
| 20260507090023 | 34 | 248 | 0.0 | 0.0 | 0.00 | 0.00 | 0.00 | 95 | 1013.6 |
| 20260507085508 | 34 | 248 | 0.0 | 0.0 | 0.00 | 0.00 | 0.00 | 95 | 1013.7 |
| 20260507085008 | 34 | 248 | 0.0 | 0.0 | 0.00 | 0.00 | 0.00 | 95 | 1013.8 |
| 20260507084526 | 34 | 248 | 0.0 | 0.0 | 0.00 | 0.00 | 0.00 | 95 | 1013.7 |
| 20260507084004 | 35 | 248 | 0.0 | 0.0 | 0.00 | 0.01 | 0.00 | 95 | 1013.8 |
| 20260507083504 | 35 | 248 | 0.0 | 0.0 | 0.00 | 0.01 | 0.00 | 95 | 1013.7 |
| 20260507083012 | 35 | 248 | 0.0 | 0.0 | 0.00 | 0.01 | 0.00 | 95 | 1013.7 |
| 20260507082504 | 35 | 248 | 0.0 | 0.0 | 0.00 | 0.02 | 0.00 | 95 | 1013.8 |
| 20260507082003 | 35 | 248 | 0.0 | 0.0 | 0.00 | 0.03 | 0.00 | 95 | 1013.9 |
| 20260507081527 | 35 | 248 | 0.0 | 0.0 | 0.00 | 0.04 | 0.00 | 95 | 1013.9 |
| 20260507081003 | 35 | 248 | 0.0 | 0.0 | 0.00 | 0.05 | 0.00 | 95 | 1013.9 |
| 20260507080507 | 35 | 248 | 0.0 | 0.0 | 0.00 | 0.06 | 0.00 | 95 | 1013.9 |
| 20260507080019 | 35 | 248 | 0.0 | 0.0 | 0.00 | 0.07 | 0.00 | 95 | 1013.9 |
| 20260507075509 | 35 | 248 | 0.0 | 0.0 | 0.00 | 0.09 | 0.00 | 95 | 1013.8 |
| 20260507075008 | 35 | 248 | 0.0 | 0.0 | 0.00 | 0.10 | 0.00 | 95 | 1013.8 |
| 20260507074544 | 35 | 248 | 0.0 | 0.0 | 0.00 | 0.10 | 0.00 | 95 | 1013.7 |
| 20260507074008 | 36 | 248 | 0.0 | 0.0 | 0.00 | 0.10 | 0.00 | 95 | 1013.7 |
| 20260507073510 | 36 | 248 | 0.0 | 0.0 | 0.00 | 0.10 | 0.00 | 95 | 1013.7 |
| 20260507073028 | 36 | 248 | 0.0 | 0.0 | 0.00 | 0.10 | 0.00 | 95 | 1013.8 |
| 20260507072004 | 36 | 248 | 0.0 | 0.0 | 0.00 | 0.10 | 0.00 | 95 | 1013.7 |
| 20260507071510 | 36 | 248 | 0.0 | 0.0 | 0.00 | 0.10 | 0.00 | 95 | 1013.7 |
| 20260507071006 | 36 | 248 | 0.0 | 0.0 | 0.00 | 0.10 | 0.00 | 95 | 1013.7 |
| 20260507070504 | 36 | 248 | 0.0 | 0.0 | 0.00 | 0.10 | 0.00 | 95 | 1013.7 |
| 20260507070020 | 36 | 248 | 0.0 | 0.0 | 0.00 | 0.11 | 0.00 | 95 | 1013.8 |
| 20260507065508 | 36 | 248 | 0.0 | 1.0 | 0.00 | 0.11 | 0.00 | 95 | 1013.8 |
| 20260507065008 | 36 | 248 | 0.0 | 1.0 | 0.00 | 0.11 | 0.00 | 95 | 1013.9 |
| 20260507064519 | 36 | 248 | 0.0 | 0.0 | 0.00 | 0.12 | 0.00 | 95 | 1013.9 |
| 20260507064010 | 36 | 248 | 0.0 | 0.0 | 0.00 | 0.12 | 0.00 | 94 | 1013.8 |
| 20260507063509 | 36 | 248 | 0.0 | 0.0 | 0.00 | 0.13 | 0.00 | 94 | 1013.9 |
| 20260507063026 | 36 | 248 | 0.0 | 0.0 | 0.00 | 0.14 | 0.00 | 94 | 1013.8 |
| 20260507062510 | 36 | 248 | 0.0 | 0.0 | 0.00 | 0.14 | 0.00 | 94 | 1013.9 |
| 20260507061528 | 37 | 248 | 0.0 | 0.0 | 0.00 | 0.15 | 0.00 | 94 | 1014.0 |
| 20260507061004 | 37 | 248 | 0.0 | 0.0 | 0.00 | 0.16 | 0.00 | 95 | 1014.0 |
| 20260507060507 | 37 | 248 | 0.0 | 0.0 | 0.00 | 0.17 | 0.00 | 95 | 1014.0 |
| 20260507060011 | 37 | 248 | 0.0 | 0.0 | 0.00 | 0.17 | 0.00 | 94 | 1014.0 |
| 20260507055506 | 37 | 248 | 0.0 | 0.0 | 0.00 | 0.18 | 0.00 | 94 | 1014.0 |
| 20260507055007 | 37 | 248 | 0.0 | 0.0 | 0.00 | 0.20 | 0.00 | 94 | 1014.0 |
| 20260507054521 | 37 | 248 | 0.0 | 0.0 | 0.00 | 0.21 | 0.00 | 94 | 1014.1 |
| 20260507054008 | 37 | 248 | 0.0 | 0.0 | 0.00 | 0.22 | 0.00 | 94 | 1014.1 |
| 20260507053508 | 37 | 248 | 0.0 | 0.0 | 0.00 | 0.22 | 0.00 | 94 | 1014.2 |
| 20260507053024 | 37 | 248 | 0.0 | 0.0 | 0.00 | 0.23 | 0.00 | 94 | 1014.3 |
| 20260507052507 | 37 | 248 | 0.0 | 0.0 | 0.00 | 0.24 | 0.00 | 94 | 1014.3 |
| 20260507052011 | 37 | 248 | 0.0 | 0.0 | 0.00 | 0.24 | 0.00 | 94 | 1014.2 |
| 20260507051525 | 37 | 248 | 0.0 | 0.0 | 0.00 | 0.24 | 0.00 | 94 | 1014.3 |
| 20260507050510 | 37 | 248 | 0.0 | 0.0 | 0.00 | 0.24 | 0.00 | 94 | 1014.2 |
| 20260507050028 | 37 | 248 | 0.0 | 0.0 | 0.00 | 0.24 | 0.00 | 93 | 1014.2 |
| 20260507045505 | 37 | 248 | 0.0 | 0.0 | 0.00 | 0.25 | 0.00 | 93 | 1014.1 |
| 20260507045005 | 37 | 248 | 0.0 | 0.0 | 0.00 | 0.25 | 0.00 | 93 | 1014.2 |
| 20260507044516 | 38 | 248 | 0.0 | 0.0 | 0.00 | 0.26 | 0.00 | 93 | 1014.2 |
| 20260507044007 | 38 | 248 | 0.0 | 0.0 | 0.00 | 0.27 | 0.00 | 93 | 1014.2 |
| 20260507043504 | 38 | 248 | 0.0 | 0.0 | 0.00 | 0.29 | 0.00 | 93 | 1014.1 |
| 20260507043020 | 38 | 248 | 0.0 | 0.0 | 0.00 | 0.30 | 0.00 | 93 | 1014.1 |
| 20260507042508 | 38 | 248 | 0.0 | 0.0 | 0.00 | 0.31 | 0.00 | 93 | 1014.0 |
| 20260507042008 | 38 | 248 | 0.0 | 0.0 | 0.00 | 0.31 | 0.00 | 93 | 1014.1 |
| 20260507041527 | 38 | 248 | 0.0 | 0.0 | 0.00 | 0.31 | 0.00 | 93 | 1014.1 |
| 20260507041009 | 38 | 248 | 0.0 | 0.0 | 0.00 | 0.31 | 0.00 | 93 | 1014.0 |
| 20260507040510 | 38 | 248 | 0.0 | 0.0 | 0.00 | 0.31 | 0.00 | 92 | 1014.1 |
| 20260507040027 | 38 | 248 | 0.0 | 0.0 | 0.00 | 0.31 | 0.00 | 92 | 1014.0 |
| 20260507035014 | 39 | 248 | 0.0 | 0.0 | 0.00 | 0.31 | 0.31 | 92 | 1014.1 |
| 20260507034527 | 39 | 248 | 0.0 | 0.0 | 0.00 | 0.31 | 0.31 | 92 | 1014.1 |
| 20260507034006 | 39 | 248 | 0.0 | 0.0 | 0.00 | 0.32 | 0.31 | 92 | 1014.1 |
| 20260507033506 | 39 | 248 | 0.0 | 0.0 | 0.00 | 0.32 | 0.31 | 91 | 1014.1 |
| 20260507033021 | 39 | 248 | 0.0 | 0.0 | 0.00 | 0.32 | 0.31 | 91 | 1014.2 |
| 20260507032509 | 39 | 248 | 0.0 | 0.0 | 0.00 | 0.33 | 0.31 | 91 | 1014.2 |
| 20260507032016 | 39 | 248 | 0.0 | 0.0 | 0.00 | 0.33 | 0.31 | 90 | 1014.3 |
| 20260507031523 | 39 | 248 | 0.0 | 0.0 | 0.00 | 0.33 | 0.31 | 90 | 1014.3 |
| 20260507031009 | 40 | 248 | 0.0 | 0.0 | 0.00 | 0.34 | 0.31 | 90 | 1014.4 |
| 20260507030024 | 40 | 248 | 0.0 | 0.0 | 0.00 | 0.36 | 0.31 | 89 | 1014.4 |
| 20260507025509 | 40 | 248 | 0.0 | 0.0 | 0.00 | 0.37 | 0.31 | 88 | 1014.5 |
| 20260507024527 | 40 | 248 | 0.0 | 0.0 | 0.00 | 0.40 | 0.31 | 87 | 1014.5 |
| 20260507023511 | 41 | 248 | 0.0 | 0.0 | 0.00 | 0.43 | 0.31 | 86 | 1014.5 |
| 20260507023028 | 41 | 248 | 0.0 | 0.0 | 0.00 | 0.44 | 0.31 | 85 | 1014.5 |
| 20260507022506 | 42 | 248 | 0.0 | 0.0 | 0.00 | 0.45 | 0.31 | 84 | 1014.4 |
| 20260507021521 | 42 | 248 | 0.0 | 0.0 | 0.00 | 0.46 | 0.31 | 82 | 1014.3 |
| 20260507021005 | 43 | 248 | 0.0 | 0.0 | 0.00 | 0.46 | 0.31 | 83 | 1014.3 |
| 20260507020506 | 43 | 248 | 0.0 | 0.0 | 0.00 | 0.47 | 0.31 | 82 | 1014.3 |
| 20260507015504 | 44 | 248 | 0.0 | 0.0 | 0.00 | 0.49 | 0.31 | 78 | 1014.2 |
| 20260507015006 | 44 | 248 | 0.0 | 0.0 | 0.00 | 0.50 | 0.31 | 77 | 1014.2 |
| 20260507014526 | 45 | 248 | 0.0 | 0.0 | 0.00 | 0.51 | 0.31 | 76 | 1014.1 |
| 20260507014005 | 45 | 248 | 0.0 | 0.0 | 0.00 | 0.52 | 0.31 | 75 | 1014.2 |